• In Uzbekistan
  • List of Countries
  • For 7 days
  • Water Temperature
  • Satellite Maps
  • Weather Map
  • Weather Widgets
  • user-avatar
    Login

    Hourly Weather Conchas

    Today, 17 February, Saturday

    Time Temperature Precipitation Wind Pressure Humidity
    00:00 +20°C° 0.1 mm 3 mps 719 mmHg 90%
    01:00 +20°C° 0 mm 3 mps 718 mmHg 91%
    02:00 +19°C° 0 mm 3 mps 718 mmHg 91%
    03:00 +19°C° 0 mm 2 mps 718 mmHg 92%
    04:00 +19°C° 0 mm 2 mps 718 mmHg 93%
    05:00 +19°C° 0 mm 2 mps 718 mmHg 93%
    06:00 +19°C° 0 mm 2 mps 718 mmHg 94%
    07:00 +21°C° 0.1 mm 2 mps 718 mmHg 89%
    08:00 +23°C° 0.1 mm 2 mps 719 mmHg 83%
    09:00 +26°C° 0 mm 3 mps 719 mmHg 77%
    10:00 +27°C° 0.2 mm 2 mps 719 mmHg 73%
    11:00 +28°C° 0.2 mm 2 mps 718 mmHg 69%
    12:00 +30°C° 0.2 mm 2 mps 718 mmHg 64%
    13:00 +30°C° 0.8 mm 2 mps 717 mmHg 64%
    14:00 +30°C° 0.8 mm 2 mps 717 mmHg 63%
    15:00 +30°C° 0.8 mm 2 mps 717 mmHg 63%
    16:00 +29°C° 2 mm 2 mps 716 mmHg 70%
    17:00 +27°C° 2 mm 1 mps 716 mmHg 78%
    18:00 +26°C° 2 mm 1 mps 716 mmHg 85%
    19:00 +25°C° 1 mm 2 mps 716 mmHg 87%
    20:00 +24°C° 1 mm 2 mps 717 mmHg 90%
    21:00 +22°C° 1 mm 3 mps 717 mmHg 92%
    22:00 +22°C° 0.5 mm 3 mps 717 mmHg 93%
    23:00 +23°C° 0.5 mm 2 mps 717 mmHg 93%

    Tomorrow, 18 February, Sunday

    Time Temperature Precipitation Wind Pressure Humidity
    00:00 +21°C° 0.5 mm 2 mps 717 mmHg 94%
    01:00 +21°C° 0 mm 2 mps 716 mmHg 94%
    02:00 +21°C° 0 mm 2 mps 716 mmHg 94%
    03:00 +21°C° 0 mm 2 mps 715 mmHg 94%
    04:00 +21°C° 0 mm 2 mps 715 mmHg 94%
    05:00 +21°C° 0 mm 2 mps 715 mmHg 94%
    06:00 +21°C° 0 mm 2 mps 715 mmHg 94%
    07:00 +21°C° 0.1 mm 2 mps 716 mmHg 91%
    08:00 +23°C° 0.1 mm 2 mps 716 mmHg 88%
    09:00 +24°C° 0.1 mm 1 mps 716 mmHg 86%
    10:00 +26°C° 0.6 mm 2 mps 716 mmHg 80%
    11:00 +27°C° 0.6 mm 2 mps 716 mmHg 75%
    12:00 +28°C° 0.6 mm 2 mps 715 mmHg 70%
    13:00 +28°C° 1.6 mm 2 mps 715 mmHg 72%
    14:00 +28°C° 1.6 mm 2 mps 714 mmHg 74%
    15:00 +27°C° 1.6 mm 2 mps 714 mmHg 77%
    16:00 +27°C° 2 mm 1 mps 713 mmHg 81%
    17:00 +26°C° 2 mm 1 mps 713 mmHg 85%
    18:00 +23°C° 2 mm 0 mps 713 mmHg 89%
    19:00 +24°C° 0.3 mm 1 mps 713 mmHg 90%
    20:00 +24°C° 0.3 mm 1 mps 714 mmHg 91%
    21:00 +23°C° 0.3 mm 1 mps 714 mmHg 92%
    22:00 +23°C° 0.3 mm 1 mps 714 mmHg 93%
    23:00 +23°C° 0.3 mm 1 mps 714 mmHg 93%

    Day after tomorrow, 19 February, Monday

    Time Temperature Precipitation Wind Pressure Humidity
    00:00 +23°C° 0.3 mm 1 mps 714 mmHg 94%
    01:00 +23°C° 0.4 mm 1 mps 713 mmHg 94%
    02:00 +22°C° 0.4 mm 1 mps 713 mmHg 94%
    03:00 +22°C° 0.4 mm 1 mps 713 mmHg 95%
    04:00 +22°C° 0.4 mm 1 mps 713 mmHg 95%
    05:00 +22°C° 0.4 mm 1 mps 713 mmHg 95%
    06:00 +22°C° 0.4 mm 1 mps 713 mmHg 95%
    07:00 +23°C° 0.1 mm 2 mps 713 mmHg 92%
    08:00 +24°C° 0.1 mm 2 mps 714 mmHg 89%
    09:00 +25°C° 0.1 mm 2 mps 714 mmHg 86%
    10:00 +25°C° 0.3 mm 3 mps 714 mmHg 83%
    11:00 +26°C° 0.3 mm 3 mps 714 mmHg 81%
    12:00 +26°C° 0.3 mm 3 mps 714 mmHg 79%
    13:00 +27°C° 0.6 mm 3 mps 713 mmHg 77%
    14:00 +28°C° 0.6 mm 3 mps 712 mmHg 76%
    15:00 +28°C° 0.6 mm 3 mps 712 mmHg 74%
    16:00 +28°C° 0.9 mm 2 mps 712 mmHg 78%
    17:00 +27°C° 0.9 mm 2 mps 712 mmHg 82%
    18:00 +27°C° 0.9 mm 1 mps 712 mmHg 86%
    19:00 +26°C° 1.8 mm 1 mps 712 mmHg 88%
    20:00 +25°C° 1.8 mm 1 mps 713 mmHg 89%
    21:00 +24°C° 1.8 mm 1 mps 713 mmHg 91%
    22:00 +24°C° 1.5 mm 2 mps 713 mmHg 92%
    23:00 +24°C° 1.5 mm 2 mps 713 mmHg 93%

    20 February, Tuesday

    Time Temperature Precipitation Wind Pressure Humidity
    00:00 +24°C° 1.5 mm 2 mps 713 mmHg 93%
    01:00 +23°C° 0.4 mm 2 mps 713 mmHg 94%
    02:00 +23°C° 0.4 mm 1 mps 712 mmHg 94%
    03:00 +23°C° 0.4 mm 1 mps 712 mmHg 95%
    04:00 +23°C° 0 mm 1 mps 712 mmHg 95%
    05:00 +22°C° 0 mm 1 mps 712 mmHg 96%
    06:00 +22°C° 0 mm 1 mps 712 mmHg 96%
    07:00 +23°C° 0 mm 2 mps 713 mmHg 93%
    08:00 +24°C° 0 mm 2 mps 713 mmHg 90%
    09:00 +25°C° 0 mm 3 mps 714 mmHg 88%
    10:00 +26°C° 0.3 mm 3 mps 714 mmHg 84%
    11:00 +27°C° 0.3 mm 3 mps 713 mmHg 81%
    12:00 +28°C° 0.3 mm 3 mps 713 mmHg 78%
    13:00 +28°C° 0.8 mm 3 mps 713 mmHg 77%
    14:00 +29°C° 0.8 mm 3 mps 712 mmHg 76%
    15:00 +29°C° 0.8 mm 3 mps 711 mmHg 75%
    16:00 +29°C° 0.7 mm 3 mps 711 mmHg 78%
    17:00 +28°C° 0.7 mm 2 mps 711 mmHg 80%
    18:00 +28°C° 0.7 mm 2 mps 711 mmHg 83%
    19:00 +27°C° 0.1 mm 2 mps 712 mmHg 86%
    20:00 +26°C° 0.1 mm 2 mps 712 mmHg 88%
    21:00 +25°C° 0.1 mm 2 mps 712 mmHg 91%
    22:00 +25°C° 0.6 mm 2 mps 712 mmHg 92%
    23:00 +24°C° 0.6 mm 2 mps 712 mmHg 93%

    21 February, Wednesday

    Time Temperature Precipitation Wind Pressure Humidity
    00:00 +24°C° 0.6 mm 2 mps 712 mmHg 94%
    01:00 +24°C° 1.3 mm 2 mps 712 mmHg 95%
    02:00 +24°C° 1.3 mm 2 mps 712 mmHg 96%
    03:00 +23°C° 1.3 mm 2 mps 711 mmHg 97%
    04:00 +23°C° 2.1 mm 2 mps 711 mmHg 97%
    05:00 +23°C° 2.1 mm 2 mps 712 mmHg 97%
    06:00 +23°C° 2.1 mm 2 mps 712 mmHg 97%
    07:00 +24°C° 1.7 mm 3 mps 712 mmHg 94%
    08:00 +25°C° 1.7 mm 3 mps 713 mmHg 92%
    09:00 +26°C° 1.7 mm 4 mps 713 mmHg 89%
    10:00 +27°C° 1.1 mm 4 mps 713 mmHg 85%
    11:00 +28°C° 1.1 mm 4 mps 713 mmHg 82%
    12:00 +29°C° 1.1 mm 4 mps 712 mmHg 78%
    13:00 +29°C° 1.3 mm 4 mps 712 mmHg 78%
    14:00 +29°C° 1.3 mm 4 mps 711 mmHg 78%
    15:00 +30°C° 1.3 mm 4 mps 710 mmHg 78%
    16:00 +29°C° 0.4 mm 3 mps 710 mmHg 80%
    17:00 +29°C° 0.4 mm 3 mps 710 mmHg 82%
    18:00 +28°C° 0.4 mm 2 mps 710 mmHg 84%
    19:00 +27°C° 0.5 mm 2 mps 710 mmHg 87%
    20:00 +26°C° 0.5 mm 2 mps 711 mmHg 90%
    21:00 +25°C° 0.5 mm 1 mps 711 mmHg 94%
    22:00 +25°C° 2.4 mm 1 mps 711 mmHg 94%
    23:00 +25°C° 2.4 mm 1 mps 711 mmHg 95%

    22 February, Thursday

    Time Temperature Precipitation Wind Pressure Humidity
    00:00 +24°C° 2.4 mm 1 mps 712 mmHg 95%
    01:00 +24°C° 1.1 mm 1 mps 711 mmHg 95%
    02:00 +24°C° 1.1 mm 2 mps 711 mmHg 94%
    03:00 +24°C° 1.1 mm 2 mps 711 mmHg 94%
    04:00 +23°C° 0 mm 2 mps 711 mmHg 94%
    05:00 +23°C° 0 mm 2 mps 712 mmHg 95%
    06:00 +23°C° 0 mm 2 mps 712 mmHg 95%
    07:00 +24°C° 0.2 mm 3 mps 713 mmHg 92%
    08:00 +24°C° 0.2 mm 3 mps 713 mmHg 89%
    09:00 +25°C° 0.2 mm 3 mps 714 mmHg 87%
    10:00 +26°C° 0.7 mm 4 mps 714 mmHg 84%
    11:00 +27°C° 0.7 mm 4 mps 714 mmHg 80%
    12:00 +28°C° 0.7 mm 4 mps 714 mmHg 77%
    13:00 +28°C° 0.9 mm 5 mps 713 mmHg 77%
    14:00 +28°C° 0.9 mm 5 mps 713 mmHg 77%
    15:00 +28°C° 0.9 mm 5 mps 712 mmHg 77%
    16:00 +27°C° 0.2 mm 5 mps 713 mmHg 78%
    17:00 +26°C° 0.2 mm 5 mps 713 mmHg 80%
    18:00 +26°C° 0.2 mm 5 mps 713 mmHg 82%
    19:00 +25°C° 0 mm 5 mps 713 mmHg 82%
    20:00 +23°C° 0 mm 5 mps 714 mmHg 82%
    21:00 +22°C° 0 mm 5 mps 714 mmHg 81%
    22:00 +22°C° 0 mm 4 mps 714 mmHg 82%
    23:00 +21°C° 0 mm 4 mps 714 mmHg 82%
    Show more